Weather in Guiyang

China     26˚34′03″N   106˚42′03″E
temp.,
°C
wind,
m/s
gust,
m/s
humid.,
%
clouds,
%
prec.,
mm/h
press.,
hPa
HPBL,
m
28 november, sat
sat2823:00+5˚ne3573100 0.0 1030387
02:00+4˚ne3476100 0.0 1029368
05:00+3˚ne3477100 0.0 1029322
08:00+3˚ne3579100 0.0 1030379
11:00+4˚nne4679100 0.0 1033438
14:00+4˚nne4782100 0.1 1030468
17:00+4˚nne3482100 0.2 1029358
20:00+4˚ne3584100 0.2 1031314
29 november, sun
sun2923:00+3˚ne228977 0.0 1030135
02:00+3˚ne238983 0.0 1029118
05:00+3˚ne128698 0.0 1028124
08:00+4˚ne128299 0.0 1029128
11:00+9˚ne2266100 0.0 1028400
14:00+9˚ene1268100 0.0 1024372
17:00+8˚ene237399 0.0 1024304
20:00+7˚ene227798 0.0 1027163
30 november, mon
mon3023:00+6˚ne357971 0.0 1029326
02:00+6˚ene357985 0.0 1029406
05:00+5˚ene2480100 0.0 1028392
08:00+4˚e2380100 0.0 1029307
11:00+9˚e226338 0.0 1027526
14:00+14˚s235935 0.0 1023963
17:00+12˚ene227091 0.0 1022409
20:00+9˚e467795 0.0 1026357
1 december, tue
tue123:00+7˚ene2380100 0.0 1027356
02:00+6˚ene2385100 0.6 1026337
05:00+6˚e2487100 0.6 1025352
08:00+6˚ese3587100 1.1 1026360
11:00+7˚se2584100 0.2 1026402
14:00+9˚se247899 0.4 1023529
17:00+8˚e2385100 0.0 1023265
20:00+7˚ene248791 0.1 1024219
2 december, wed
wed223:00+7˚ene2287100 0.0 1025235
02:00+7˚e2489100 0.2 1024284
05:00+7˚ese2389100 0.2 1022244
08:00+7˚se2689100 0.3 1022334
11:00+8˚se3886100 0.3 1023442
14:00+9˚se368499 0.3 1020529
17:00+8˚ese2587100 0.3 1020403
20:00+7˚ne3490100 0.8 1023246